logo Eve Who17,867,091 Characters
839,310 Corporations
9,329 Alliances

Home Pilots Corporations Alliances FAQ 

corp logo
alli logo
character image
Character:Toni Soprano [CEO]
Corporation:SLYCE Procurers
Alliance:GoTG Militia
Sec. Status:-0.5
Links:zKillboard
EveSkillBoard
Eve-Search
Last Updated: 2019-08-16 16:29:22 | 303949659
Corp. History
 NameJoinedLeft
corp logoSLYCE Procurers2017/11/05 03:30
corp logoMinistry of War2017/08/21 02:342017/11/05 03:29
corp logoSLYCE Procurers2017/06/12 01:032017/08/21 02:33
corp logoMinistry of War2016/06/24 15:562017/06/12 01:02
corp logoAlpha Republic - Transcenders of Space and Time2016/04/01 05:162016/06/24 15:55
corp logoMinistry of War2015/10/06 13:242016/04/01 05:15
corp logoMacabre Votum2014/01/08 20:072015/10/06 13:23
corp logoMissions Mining and Mayhem2013/07/11 19:032014/01/08 20:06
corp logoHamburger Jungs2012/07/09 18:422013/07/11 19:02
corp logoMinistry of War2012/07/09 18:412012/07/09 18:41
corp logoDie Vandalen2011/11/20 19:152012/07/09 18:40
corp logoMinistry of War2011/11/19 21:312011/11/20 19:14
corp logoLost Souls Continuum2011/07/09 17:062011/11/19 21:30
corp logoMinistry of War2011/07/09 12:462011/07/09 17:05
corp logoDecadence.2010/11/20 22:382011/07/09 12:45
corp logoMinistry of War2010/10/25 23:282010/11/20 22:37
corp logoThe Health Angels2010/10/17 14:552010/10/25 23:27
corp logoMinistry of War2010/10/13 20:062010/10/17 14:54
corp logoTwinstar Universal Services2010/09/25 17:202010/10/13 20:05
corp logoMinistry of War2010/09/25 12:562010/09/25 17:19
corp logoDecadence.2010/06/10 18:472010/09/25 12:55
corp logoMinistry of War2010/06/04 09:572010/06/10 18:46
corp logoStar Gate Universe2010/05/25 17:342010/06/04 09:56
corp logoMinistry of War2010/05/24 07:472010/05/25 17:33
corp logoCataclysm Enterprises2010/04/15 16:352010/05/24 07:46
corp logoMinistry of War2010/04/15 16:322010/04/15 16:34
corp logoTwinstar Universal Services2009/12/10 21:062010/04/15 16:31
corp logoMinistry of War2009/12/10 20:592009/12/10 21:05
corp logoThe Dead Warlords2009/12/06 18:392009/12/10 20:58
corp logoMinistry of War2009/12/04 15:342009/12/06 18:38
corp logoTwinstar Universal Services2009/11/16 20:022009/12/04 15:33
corp logoMinistry of War2009/07/25 13:012009/11/16 20:01
corp logoGiza and co2007/09/15 21:222009/07/25 13:00
corp logoImperial Academy2006/12/17 02:222007/09/15 21:21


Any pilots, corporations, or alliances that relate to actual people or entities are purely coincidental.
7q/22ms Disclaimer A / C Brought to you by: Squizz Caphinator Forum Thread
EVE Online and the EVE logo are the registered trademarks of CCP hf. All rights are reserved worldwide. All other trademarks are the property of their respective owners. EVE Online, the EVE logo, EVE and all associated logos and designs are the intellectual property of CCP hf. All artwork, screenshots, characters, vehicles, storylines, world facts or other recognizable features of the intellectual property relating to these trademarks are likewise the intellectual property of CCP hf. CCP hf. has granted permission to evewho.com to use EVE Online and all associated logos and designs for promotional and information purposes on its website but does not endorse, and is not in any way affiliated with, evewho.com. CCP is in no way responsible for the content on or functioning of this website, nor can it be liable for any damage arising from the use of this website.